Time,TemperatureF,DewpointF,PressureIn,WindDirection,WindDirectionDegrees,WindSpeedMPH,WindSpeedGustMPH,Humidity,HourlyPrecipIn,Conditions,Clouds,dailyrainin,SoftwareType,DateUTC
2013-08-22 00:02:00,59.0,56.0,29.70,SSW,202,5.4,7.0,91,0.00,,,0.00,Rainwise IP-100,2013-08-22 07:02:00,
2013-08-22 00:07:00,59.0,56.0,29.69,West,270,6.3,7.0,91,0.00,,,0.00,Rainwise IP-100,2013-08-22 07:07:00,
2013-08-22 00:12:00,58.9,56.0,29.69,WNW,292,3.3,7.0,91,0.00,,,0.00,Rainwise IP-100,2013-08-22 07:12:00,
2013-08-22 00:17:00,58.8,56.0,29.69,WSW,247,2.3,8.0,91,0.00,,,0.00,Rainwise IP-100,2013-08-22 07:17:00,
2013-08-22 00:22:00,58.7,56.0,29.69,SW,225,4.2,8.0,91,0.00,,,0.00,Rainwise IP-100,2013-08-22 07:22:00,
2013-08-22 00:27:00,58.5,56.0,29.69,WSW,247,4.9,11.0,91,0.00,,,0.00,Rainwise IP-100,2013-08-22 07:27:00,
2013-08-22 00:32:00,58.5,56.0,29.69,SSW,202,7.7,10.0,91,0.00,,,0.00,Rainwise IP-100,2013-08-22 07:32:00,
2013-08-22 00:37:00,58.4,56.0,29.69,SW,225,7.7,10.0,92,0.00,,,0.00,Rainwise IP-100,2013-08-22 07:37:00,
2013-08-22 00:42:00,58.4,56.0,29.69,WNW,292,5.4,9.0,92,0.00,,,0.00,Rainwise IP-100,2013-08-22 07:42:00,
2013-08-22 00:47:00,58.6,56.0,29.69,SW,225,5.4,6.0,92,0.00,,,0.00,Rainwise IP-100,2013-08-22 07:47:00,
2013-08-22 00:52:00,58.7,56.0,29.70,SSW,202,4.9,7.0,91,0.00,,,0.00,Rainwise IP-100,2013-08-22 07:52:00,
2013-08-22 00:57:00,58.6,56.0,29.70,West,270,5.6,8.0,91,0.00,,,0.00,Rainwise IP-100,2013-08-22 07:57:00,
2013-08-22 01:02:00,58.5,56.0,29.69,SW,225,8.2,8.2,91,0.00,,,0.00,Rainwise IP-100,2013-08-22 08:02:00,
2013-08-22 01:07:00,58.5,56.0,29.69,SW,225,6.1,9.0,91,0.00,,,0.00,Rainwise IP-100,2013-08-22 08:07:00,
2013-08-22 01:12:00,58.4,56.0,29.68,SW,225,5.6,9.0,91,0.00,,,0.00,Rainwise IP-100,2013-08-22 08:12:00,
2013-08-22 01:17:00,58.4,56.0,29.69,SSW,202,2.6,8.0,91,0.00,,,0.00,Rainwise IP-100,2013-08-22 08:17:00,
2013-08-22 01:22:00,58.3,56.0,29.69,SW,225,6.8,8.0,92,0.00,,,0.00,Rainwise IP-100,2013-08-22 08:22:00,
2013-08-22 01:27:00,58.2,56.0,29.69,SW,225,2.6,9.0,92,0.00,,,0.00,Rainwise IP-100,2013-08-22 08:27:00,
2013-08-22 01:32:00,58.1,56.0,29.68,SSW,202,3.5,7.0,92,0.00,,,0.00,Rainwise IP-100,2013-08-22 08:32:00,
2013-08-22 01:37:00,58.1,56.0,29.69,SW,225,4.7,7.0,92,0.00,,,0.00,Rainwise IP-100,2013-08-22 08:37:00,
2013-08-22 01:42:00,58.1,56.0,29.69,SW,225,6.5,8.0,92,0.00,,,0.00,Rainwise IP-100,2013-08-22 08:42:00,
2013-08-22 01:47:00,58.1,56.0,29.68,SW,225,6.5,11.0,93,0.00,,,0.00,Rainwise IP-100,2013-08-22 08:47:00,
2013-08-22 01:52:00,58.1,56.0,29.68,SW,225,3.5,10.0,93,0.00,,,0.00,Rainwise IP-100,2013-08-22 08:52:00,
2013-08-22 01:57:00,58.0,56.0,29.68,SW,225,4.9,8.0,93,0.00,,,0.00,Rainwise IP-100,2013-08-22 08:57:00,
2013-08-22 02:02:00,57.9,56.0,29.68,SW,225,4.0,10.0,93,0.00,,,0.00,Rainwise IP-100,2013-08-22 09:02:00,
2013-08-22 02:07:00,58.0,56.0,29.68,WSW,247,2.8,6.0,93,0.00,,,0.00,Rainwise IP-100,2013-08-22 09:07:00,
2013-08-22 02:12:00,58.0,56.0,29.69,WSW,247,5.8,7.0,93,0.00,,,0.00,Rainwise IP-100,2013-08-22 09:12:00,
2013-08-22 02:17:00,58.0,56.0,29.68,SSW,202,4.7,7.0,93,0.00,,,0.00,Rainwise IP-100,2013-08-22 09:17:00,
2013-08-22 02:22:00,58.0,56.0,29.69,SSW,202,6.5,10.0,93,0.00,,,0.00,Rainwise IP-100,2013-08-22 09:22:00,
2013-08-22 02:27:00,58.1,56.0,29.68,SSW,202,4.0,10.0,93,0.00,,,0.00,Rainwise IP-100,2013-08-22 09:27:00,
2013-08-22 02:32:00,58.1,56.0,29.68,SSW,202,7.5,11.0,93,0.00,,,0.00,Rainwise IP-100,2013-08-22 09:32:00,
2013-08-22 02:37:00,58.1,56.0,29.68,SW,225,4.7,12.0,93,0.00,,,0.00,Rainwise IP-100,2013-08-22 09:37:00,
2013-08-22 02:42:00,58.2,56.0,29.69,SSW,202,7.2,12.0,93,0.00,,,0.00,Rainwise IP-100,2013-08-22 09:42:00,
2013-08-22 02:47:00,58.2,56.0,29.68,WSW,247,5.6,13.0,93,0.00,,,0.00,Rainwise IP-100,2013-08-22 09:47:00,
2013-08-22 02:52:00,58.1,56.0,29.68,WSW,247,5.1,12.0,93,0.00,,,0.00,Rainwise IP-100,2013-08-22 09:52:00,
2013-08-22 02:57:00,58.1,56.0,29.68,SW,225,8.6,12.0,93,0.00,,,0.00,Rainwise IP-100,2013-08-22 09:57:00,
2013-08-22 03:02:00,58.1,56.0,29.69,SW,225,4.2,11.0,93,0.00,,,0.00,Rainwise IP-100,2013-08-22 10:02:00,
2013-08-22 03:07:00,58.1,56.0,29.69,WSW,247,5.6,14.0,93,0.00,,,0.00,Rainwise IP-100,2013-08-22 10:07:00,
2013-08-22 03:12:00,58.2,56.0,29.69,West,270,5.6,12.0,93,0.00,,,0.00,Rainwise IP-100,2013-08-22 10:12:00,
2013-08-22 03:17:00,58.2,56.0,29.69,WSW,247,4.0,12.0,93,0.00,,,0.00,Rainwise IP-100,2013-08-22 10:17:00,
2013-08-22 03:22:00,58.2,56.0,29.69,SSW,202,8.4,9.0,93,0.00,,,0.00,Rainwise IP-100,2013-08-22 10:22:00,
2013-08-22 03:27:00,58.1,56.0,29.69,WSW,247,9.6,11.0,93,0.00,,,0.00,Rainwise IP-100,2013-08-22 10:27:00,
2013-08-22 03:32:00,58.1,56.0,29.69,SW,225,4.9,11.0,93,0.00,,,0.00,Rainwise IP-100,2013-08-22 10:32:00,
2013-08-22 03:37:00,58.1,56.0,29.69,SSW,202,6.8,12.0,93,0.00,,,0.00,Rainwise IP-100,2013-08-22 10:37:00,
2013-08-22 03:42:00,58.1,56.0,29.69,West,270,4.7,9.0,93,0.00,,,0.00,Rainwise IP-100,2013-08-22 10:42:00,
2013-08-22 03:47:00,58.1,56.0,29.69,WSW,247,5.1,8.0,93,0.00,,,0.00,Rainwise IP-100,2013-08-22 10:47:00,
2013-08-22 05:27:00,57.5,56.0,29.69,WSW,247,2.8,7.0,93,0.00,,,0.00,Rainwise IP-100,2013-08-22 12:27:00,
2013-08-22 05:32:00,57.5,56.0,29.69,WSW,247,6.8,6.8,94,0.00,,,0.00,Rainwise IP-100,2013-08-22 12:32:00,
2013-08-22 05:37:00,57.5,56.0,29.68,WSW,247,4.9,8.0,94,0.00,,,0.00,Rainwise IP-100,2013-08-22 12:37:00,
2013-08-22 05:42:00,57.5,56.0,29.69,SW,225,4.9,8.0,94,0.00,,,0.00,Rainwise IP-100,2013-08-22 12:42:00,
2013-08-22 05:47:00,57.5,56.0,29.69,SSW,202,4.7,9.0,94,0.00,,,0.00,Rainwise IP-100,2013-08-22 12:47:00,
2013-08-22 05:52:00,57.6,56.0,29.69,West,270,4.0,8.0,94,0.00,,,0.00,Rainwise IP-100,2013-08-22 12:52:00,
2013-08-22 05:57:00,57.6,56.0,29.69,WSW,247,4.9,7.0,94,0.00,,,0.00,Rainwise IP-100,2013-08-22 12:57:00,
2013-08-22 06:00:00,57.6,56.0,29.69,WNW,292,3.5,8.0,94,0.00,,,0.00,Rainwise IP-100,2013-08-22 13:00:00,
2013-08-22 06:05:00,57.5,56.0,29.69,SW,225,4.7,7.0,94,0.00,,,0.00,Rainwise IP-100,2013-08-22 13:05:00,
2013-08-22 06:10:00,57.5,56.0,29.70,WSW,247,4.0,7.0,94,0.00,,,0.00,Rainwise IP-100,2013-08-22 13:10:00,
2013-08-22 06:15:00,57.5,56.0,29.70,WSW,247,2.8,6.0,94,0.00,,,0.00,Rainwise IP-100,2013-08-22 13:15:00,
2013-08-22 06:20:00,57.5,56.0,29.69,WSW,247,5.4,6.0,94,0.00,,,0.00,Rainwise IP-100,2013-08-22 13:20:00,
2013-08-22 06:25:00,57.5,56.0,29.70,WNW,292,2.6,7.0,94,0.00,,,0.00,Rainwise IP-100,2013-08-22 13:25:00,
2013-08-22 06:30:00,57.5,56.0,29.70,West,270,4.9,7.0,94,0.00,,,0.00,Rainwise IP-100,2013-08-22 13:30:00,
2013-08-22 06:35:00,57.6,56.0,29.70,WSW,247,3.5,6.0,94,0.00,,,0.00,Rainwise IP-100,2013-08-22 13:35:00,
2013-08-22 06:40:00,57.7,56.0,29.70,WSW,247,3.0,7.0,94,0.00,,,0.00,Rainwise IP-100,2013-08-22 13:40:00,
2013-08-22 06:45:00,57.6,56.0,29.71,SSW,202,4.4,6.0,94,0.00,,,0.00,Rainwise IP-100,2013-08-22 13:45:00,
2013-08-22 06:50:00,57.6,56.0,29.71,SW,225,3.7,8.0,94,0.00,,,0.00,Rainwise IP-100,2013-08-22 13:50:00,
2013-08-22 06:55:00,57.7,56.0,29.71,WSW,247,5.6,7.0,94,0.00,,,0.00,Rainwise IP-100,2013-08-22 13:55:00,
2013-08-22 07:00:00,57.7,56.0,29.71,WSW,247,6.5,7.0,93,0.00,,,0.00,Rainwise IP-100,2013-08-22 14:00:00,
2013-08-22 07:05:00,57.7,56.0,29.71,SW,225,2.8,7.0,93,0.00,,,0.00,Rainwise IP-100,2013-08-22 14:05:00,
2013-08-22 07:10:00,57.7,56.0,29.71,WSW,247,5.1,7.0,93,0.00,,,0.00,Rainwise IP-100,2013-08-22 14:10:00,
2013-08-22 07:15:00,57.8,56.0,29.71,SW,225,5.8,7.0,93,0.00,,,0.00,Rainwise IP-100,2013-08-22 14:15:00,
2013-08-22 07:20:00,57.8,56.0,29.71,SW,225,1.9,6.0,93,0.00,,,0.00,Rainwise IP-100,2013-08-22 14:20:00,
2013-08-22 07:25:00,57.9,56.0,29.71,WSW,247,3.7,7.0,93,0.00,,,0.00,Rainwise IP-100,2013-08-22 14:25:00,
2013-08-22 07:30:00,57.9,56.0,29.72,WNW,292,7.0,8.0,93,0.00,,,0.00,Rainwise IP-100,2013-08-22 14:30:00,
2013-08-22 07:35:00,57.9,56.0,29.72,WSW,247,4.4,7.0,93,0.00,,,0.00,Rainwise IP-100,2013-08-22 14:35:00,
2013-08-22 07:40:00,58.0,56.0,29.72,WSW,247,2.8,7.0,93,0.00,,,0.00,Rainwise IP-100,2013-08-22 14:40:00,
2013-08-22 07:45:00,58.0,56.0,29.72,SW,225,4.9,8.0,93,0.00,,,0.00,Rainwise IP-100,2013-08-22 14:45:00,
2013-08-22 07:50:00,58.1,56.0,29.72,SSW,202,2.3,7.0,93,0.00,,,0.00,Rainwise IP-100,2013-08-22 14:50:00,
2013-08-22 07:55:00,58.1,56.0,29.72,WSW,247,6.8,7.0,93,0.00,,,0.00,Rainwise IP-100,2013-08-22 14:55:00,
2013-08-22 08:00:00,58.1,56.0,29.72,SSW,202,4.2,8.0,93,0.00,,,0.00,Rainwise IP-100,2013-08-22 15:00:00,
2013-08-22 08:05:00,58.1,56.0,29.73,WSW,247,4.2,8.0,93,0.00,,,0.00,Rainwise IP-100,2013-08-22 15:05:00,
2013-08-22 08:10:00,58.1,56.0,29.73,West,270,4.7,7.0,93,0.00,,,0.00,Rainwise IP-100,2013-08-22 15:10:00,
2013-08-22 08:15:00,58.2,56.0,29.73,West,270,1.9,8.0,93,0.00,,,0.00,Rainwise IP-100,2013-08-22 15:15:00,
2013-08-22 08:20:00,58.2,56.0,29.73,SW,225,3.7,7.0,92,0.00,,,0.00,Rainwise IP-100,2013-08-22 15:20:00,
2013-08-22 08:25:00,58.2,56.0,29.73,West,270,6.3,9.0,92,0.00,,,0.00,Rainwise IP-100,2013-08-22 15:25:00,
2013-08-22 08:30:00,58.2,56.0,29.73,West,270,6.5,10.0,92,0.00,,,0.00,Rainwise IP-100,2013-08-22 15:30:00,
2013-08-22 08:35:00,58.2,56.0,29.73,WNW,292,6.3,9.0,92,0.00,,,0.00,Rainwise IP-100,2013-08-22 15:35:00,
2013-08-22 08:40:00,58.2,56.0,29.74,WSW,247,4.7,8.0,92,0.00,,,0.00,Rainwise IP-100,2013-08-22 15:40:00,
2013-08-22 08:45:00,58.2,56.0,29.73,West,270,1.9,8.0,92,0.00,,,0.00,Rainwise IP-100,2013-08-22 15:45:00,
2013-08-22 08:50:00,58.3,56.0,29.73,SW,225,3.7,7.0,92,0.00,,,0.00,Rainwise IP-100,2013-08-22 15:50:00,
2013-08-22 08:55:00,58.6,56.0,29.73,WNW,292,5.4,7.0,92,0.00,,,0.00,Rainwise IP-100,2013-08-22 15:55:00,
2013-08-22 09:00:00,58.6,56.0,29.73,West,270,5.4,8.0,91,0.00,,,0.00,Rainwise IP-100,2013-08-22 16:00:00,
2013-08-22 09:05:00,58.8,56.0,29.73,West,270,6.8,7.0,91,0.00,,,0.00,Rainwise IP-100,2013-08-22 16:05:00,
2013-08-22 09:10:00,58.7,56.0,29.73,WSW,247,5.1,8.0,91,0.00,,,0.00,Rainwise IP-100,2013-08-22 16:10:00,
2013-08-22 09:15:00,58.6,56.0,29.73,WSW,247,3.0,8.0,91,0.00,,,0.00,Rainwise IP-100,2013-08-22 16:15:00,
2013-08-22 09:20:00,58.7,56.0,29.74,WNW,292,3.5,9.0,91,0.00,,,0.00,Rainwise IP-100,2013-08-22 16:20:00,
2013-08-22 09:25:00,58.7,56.0,29.74,West,270,4.7,8.0,91,0.00,,,0.00,Rainwise IP-100,2013-08-22 16:25:00,
2013-08-22 09:30:00,58.7,56.0,29.74,WSW,247,4.0,10.0,91,0.00,,,0.00,Rainwise IP-100,2013-08-22 16:30:00,
2013-08-22 09:35:00,58.7,56.0,29.74,West,270,6.3,8.0,91,0.00,,,0.00,Rainwise IP-100,2013-08-22 16:35:00,
2013-08-22 09:40:00,58.9,56.0,29.74,SW,225,4.2,8.0,91,0.00,,,0.00,Rainwise IP-100,2013-08-22 16:40:00,
2013-08-22 09:45:00,59.1,56.0,29.75,WSW,247,5.6,8.0,90,0.00,,,0.00,Rainwise IP-100,2013-08-22 16:45:00,
2013-08-22 09:50:00,59.2,56.0,29.75,WSW,247,2.6,7.0,90,0.00,,,0.00,Rainwise IP-100,2013-08-22 16:50:00,
2013-08-22 09:55:00,59.4,56.0,29.75,West,270,4.2,8.0,90,0.00,,,0.00,Rainwise IP-100,2013-08-22 16:55:00,
2013-08-22 10:00:00,59.2,56.0,29.75,SW,225,5.6,11.0,90,0.00,,,0.00,Rainwise IP-100,2013-08-22 17:00:00,
2013-08-22 10:05:00,59.1,56.0,29.75,WSW,247,1.4,10.0,90,0.00,,,0.00,Rainwise IP-100,2013-08-22 17:05:00,
2013-08-22 10:10:00,59.3,56.0,29.75,WSW,247,4.9,9.0,89,0.00,,,0.00,Rainwise IP-100,2013-08-22 17:10:00,
2013-08-22 10:15:00,59.7,56.0,29.75,SSW,202,5.4,8.0,89,0.00,,,0.00,Rainwise IP-100,2013-08-22 17:15:00,
2013-08-22 10:20:00,59.8,56.0,29.75,WNW,292,3.3,12.0,88,0.00,,,0.00,Rainwise IP-100,2013-08-22 17:20:00,
2013-08-22 10:25:00,59.8,56.0,29.75,WSW,247,8.6,10.0,88,0.00,,,0.00,Rainwise IP-100,2013-08-22 17:25:00,
2013-08-22 10:30:00,59.8,56.0,29.75,SW,225,5.1,11.0,88,0.00,,,0.00,Rainwise IP-100,2013-08-22 17:30:00,
2013-08-22 10:35:00,59.8,56.0,29.75,SSW,202,4.9,10.0,88,0.00,,,0.00,Rainwise IP-100,2013-08-22 17:35:00,
2013-08-22 10:40:00,60.1,56.0,29.75,SW,225,7.7,8.0,87,0.00,,,0.00,Rainwise IP-100,2013-08-22 17:40:00,
2013-08-22 10:45:00,60.3,56.0,29.75,WNW,292,5.6,9.0,87,0.00,,,0.00,Rainwise IP-100,2013-08-22 17:45:00,
2013-08-22 10:50:00,60.2,56.0,29.75,WNW,292,6.5,10.0,87,0.00,,,0.00,Rainwise IP-100,2013-08-22 17:50:00,
2013-08-22 10:55:00,60.2,56.0,29.75,SSE,157,0.0,10.0,86,0.00,,,0.00,Rainwise IP-100,2013-08-22 17:55:00,
2013-08-22 11:00:00,60.6,56.0,29.75,WSW,247,3.3,10.0,86,0.00,,,0.00,Rainwise IP-100,2013-08-22 18:00:00,
2013-08-22 11:05:00,61.1,56.0,29.75,West,270,3.3,10.0,85,0.00,,,0.00,Rainwise IP-100,2013-08-22 18:05:00,
2013-08-22 11:10:00,61.3,56.0,29.75,SW,225,4.2,9.0,84,0.00,,,0.00,Rainwise IP-100,2013-08-22 18:10:00,
2013-08-22 11:15:00,61.3,56.0,29.75,SW,225,7.0,10.0,84,0.00,,,0.00,Rainwise IP-100,2013-08-22 18:15:00,
2013-08-22 11:20:00,61.6,56.0,29.75,WSW,247,4.2,11.0,83,0.00,,,0.00,Rainwise IP-100,2013-08-22 18:20:00,
2013-08-22 11:25:00,61.8,56.0,29.75,SSW,202,8.6,12.0,82,0.00,,,0.00,Rainwise IP-100,2013-08-22 18:25:00,
2013-08-22 11:30:00,62.0,56.0,29.74,WNW,292,2.3,10.0,82,0.00,,,0.00,Rainwise IP-100,2013-08-22 18:30:00,
2013-08-22 11:35:00,62.2,56.0,29.74,SSW,202,4.7,11.0,82,0.00,,,0.00,Rainwise IP-100,2013-08-22 18:35:00,
2013-08-22 11:40:00,62.7,56.0,29.75,SW,225,6.3,10.0,81,0.00,,,0.00,Rainwise IP-100,2013-08-22 18:40:00,
2013-08-22 11:45:00,63.0,57.0,29.74,WSW,247,3.5,11.0,81,0.00,,,0.00,Rainwise IP-100,2013-08-22 18:45:00,
2013-08-22 11:50:00,62.7,56.0,29.74,WSW,247,7.5,11.0,80,0.00,,,0.00,Rainwise IP-100,2013-08-22 18:50:00,
2013-08-22 11:55:00,62.5,56.0,29.74,West,270,7.5,10.0,80,0.00,,,0.00,Rainwise IP-100,2013-08-22 18:55:00,
2013-08-22 12:00:00,62.6,56.0,29.74,West,270,7.7,12.0,80,0.00,,,0.00,Rainwise IP-100,2013-08-22 19:00:00,
2013-08-22 12:05:00,63.0,56.0,29.74,SSW,202,9.3,14.0,80,0.00,,,0.00,Rainwise IP-100,2013-08-22 19:05:00,
2013-08-22 12:10:00,63.0,56.0,29.74,SSW,202,6.1,11.0,79,0.00,,,0.00,Rainwise IP-100,2013-08-22 19:10:00,
2013-08-22 12:15:00,63.0,56.0,29.74,WSW,247,4.9,13.0,79,0.00,,,0.00,Rainwise IP-100,2013-08-22 19:15:00,
2013-08-22 12:20:00,63.4,56.0,29.73,West,270,4.2,12.0,78,0.00,,,0.00,Rainwise IP-100,2013-08-22 19:20:00,
2013-08-22 12:25:00,63.6,56.0,29.73,SW,225,3.7,13.0,78,0.00,,,0.00,Rainwise IP-100,2013-08-22 19:25:00,
2013-08-22 12:30:00,63.6,56.0,29.73,SSW,202,6.5,11.0,78,0.00,,,0.00,Rainwise IP-100,2013-08-22 19:30:00,
2013-08-22 12:35:00,63.5,56.0,29.74,West,270,5.8,11.0,78,0.00,,,0.00,Rainwise IP-100,2013-08-22 19:35:00,
2013-08-22 12:40:00,63.5,56.0,29.73,SW,225,9.8,13.0,78,0.00,,,0.00,Rainwise IP-100,2013-08-22 19:40:00,
2013-08-22 12:45:00,63.4,56.0,29.73,WSW,247,5.6,15.0,78,0.00,,,0.00,Rainwise IP-100,2013-08-22 19:45:00,
2013-08-22 12:50:00,63.3,56.0,29.73,SSW,202,5.6,11.0,77,0.00,,,0.00,Rainwise IP-100,2013-08-22 19:50:00,
2013-08-22 12:55:00,63.9,56.0,29.73,West,270,2.6,13.0,77,0.00,,,0.00,Rainwise IP-100,2013-08-22 19:55:00,
2013-08-22 13:00:00,64.3,56.0,29.73,West,270,7.5,12.0,77,0.00,,,0.00,Rainwise IP-100,2013-08-22 20:00:00,
2013-08-22 13:05:00,64.1,56.0,29.73,WSW,247,2.6,17.0,76,0.00,,,0.00,Rainwise IP-100,2013-08-22 20:05:00,
2013-08-22 13:10:00,64.1,56.0,29.72,SSW,202,2.8,15.0,76,0.00,,,0.00,Rainwise IP-100,2013-08-22 20:10:00,
2013-08-22 13:15:00,64.3,56.0,29.73,WNW,292,6.3,14.0,76,0.00,,,0.00,Rainwise IP-100,2013-08-22 20:15:00,
2013-08-22 13:20:00,64.0,56.0,29.73,SSW,202,7.0,14.0,76,0.00,,,0.00,Rainwise IP-100,2013-08-22 20:20:00,
2013-08-22 13:25:00,63.6,56.0,29.73,West,270,5.8,15.0,77,0.00,,,0.00,Rainwise IP-100,2013-08-22 20:25:00,
2013-08-22 13:30:00,63.7,56.0,29.73,SW,225,9.6,13.0,77,0.00,,,0.00,Rainwise IP-100,2013-08-22 20:30:00,
2013-08-22 13:35:00,63.7,56.0,29.73,West,270,11.2,17.0,77,0.00,,,0.00,Rainwise IP-100,2013-08-22 20:35:00,
2013-08-22 13:40:00,63.6,56.0,29.72,WSW,247,7.5,16.0,77,0.00,,,0.00,Rainwise IP-100,2013-08-22 20:40:00,
2013-08-22 13:45:00,63.9,56.0,29.72,SW,225,9.1,15.0,77,0.00,,,0.00,Rainwise IP-100,2013-08-22 20:45:00,
2013-08-22 13:50:00,64.1,56.0,29.72,SSW,202,16.6,16.6,77,0.00,,,0.00,Rainwise IP-100,2013-08-22 20:50:00,
2013-08-22 13:55:00,64.1,56.0,29.73,SSW,202,15.9,18.0,76,0.00,,,0.00,Rainwise IP-100,2013-08-22 20:55:00,
2013-08-22 14:00:00,63.7,56.0,29.73,West,270,7.9,17.0,76,0.00,,,0.00,Rainwise IP-100,2013-08-22 21:00:00,
2013-08-22 14:05:00,63.5,56.0,29.72,SW,225,4.7,14.0,76,0.00,,,0.00,Rainwise IP-100,2013-08-22 21:05:00,
2013-08-22 14:10:00,63.6,56.0,29.72,SSW,202,4.7,17.0,76,0.00,,,0.00,Rainwise IP-100,2013-08-22 21:10:00,
2013-08-22 14:15:00,63.4,56.0,29.72,West,270,10.5,17.0,76,0.00,,,0.00,Rainwise IP-100,2013-08-22 21:15:00,
2013-08-22 14:20:00,63.3,56.0,29.72,WSW,247,9.3,16.0,77,0.00,,,0.00,Rainwise IP-100,2013-08-22 21:20:00,
2013-08-22 14:25:00,63.2,56.0,29.72,SW,225,4.4,15.0,77,0.00,,,0.00,Rainwise IP-100,2013-08-22 21:25:00,
2013-08-22 14:30:00,63.3,56.0,29.72,WSW,247,6.1,15.0,77,0.00,,,0.00,Rainwise IP-100,2013-08-22 21:30:00,
2013-08-22 14:35:00,63.1,56.0,29.72,WSW,247,7.5,18.0,77,0.00,,,0.00,Rainwise IP-100,2013-08-22 21:35:00,
2013-08-22 14:40:00,62.9,56.0,29.72,WSW,247,11.0,17.0,77,0.00,,,0.00,Rainwise IP-100,2013-08-22 21:40:00,
2013-08-22 14:45:00,63.0,56.0,29.72,WSW,247,9.8,18.0,77,0.00,,,0.00,Rainwise IP-100,2013-08-22 21:45:00,
2013-08-22 14:50:00,63.1,56.0,29.72,WNW,292,8.6,15.0,77,0.00,,,0.00,Rainwise IP-100,2013-08-22 21:50:00,
2013-08-22 14:55:00,63.0,56.0,29.72,WSW,247,15.9,19.0,77,0.00,,,0.00,Rainwise IP-100,2013-08-22 21:55:00,
2013-08-22 15:00:00,62.7,55.0,29.71,WSW,247,6.1,16.0,78,0.00,,,0.00,Rainwise IP-100,2013-08-22 22:00:00,
2013-08-22 15:05:00,62.7,55.0,29.72,West,270,5.6,16.0,78,0.00,,,0.00,Rainwise IP-100,2013-08-22 22:05:00,
2013-08-22 15:10:00,63.0,56.0,29.72,SSW,202,5.6,16.0,77,0.00,,,0.00,Rainwise IP-100,2013-08-22 22:10:00,
2013-08-22 15:15:00,63.2,56.0,29.71,WSW,247,7.0,17.0,77,0.00,,,0.00,Rainwise IP-100,2013-08-22 22:15:00,
2013-08-22 15:20:00,63.3,55.0,29.71,SW,225,6.1,15.0,76,0.00,,,0.00,Rainwise IP-100,2013-08-22 22:20:00,
2013-08-22 15:25:00,63.2,55.0,29.71,WSW,247,10.3,19.0,76,0.00,,,0.00,Rainwise IP-100,2013-08-22 22:25:00,
2013-08-22 15:30:00,62.9,56.0,29.72,SW,225,12.4,18.0,77,0.00,,,0.00,Rainwise IP-100,2013-08-22 22:30:00,
2013-08-22 15:35:00,62.8,55.0,29.71,SW,225,8.4,17.0,78,0.00,,,0.00,Rainwise IP-100,2013-08-22 22:35:00,
2013-08-22 15:40:00,63.4,56.0,29.71,WSW,247,4.4,15.0,77,0.00,,,0.00,Rainwise IP-100,2013-08-22 22:40:00,
2013-08-22 15:45:00,63.7,56.0,29.70,WSW,247,10.7,14.0,77,0.00,,,0.00,Rainwise IP-100,2013-08-22 22:45:00,
2013-08-22 15:50:00,63.4,56.0,29.70,SSW,202,11.0,16.0,77,0.00,,,0.00,Rainwise IP-100,2013-08-22 22:50:00,
2013-08-22 15:55:00,63.0,56.0,29.70,SW,225,8.6,16.0,77,0.00,,,0.00,Rainwise IP-100,2013-08-22 22:55:00,
2013-08-22 16:00:00,62.8,55.0,29.71,WSW,247,14.0,17.0,77,0.00,,,0.00,Rainwise IP-100,2013-08-22 23:00:00,
2013-08-22 16:05:00,62.7,55.0,29.70,SSW,202,12.4,20.0,78,0.00,,,0.00,Rainwise IP-100,2013-08-22 23:05:00,
2013-08-22 16:10:00,62.5,56.0,29.70,WSW,247,11.4,19.0,79,0.00,,,0.00,Rainwise IP-100,2013-08-22 23:10:00,
2013-08-22 16:15:00,62.5,56.0,29.70,SW,225,13.3,19.0,79,0.00,,,0.00,Rainwise IP-100,2013-08-22 23:15:00,
2013-08-22 16:20:00,62.6,56.0,29.70,WSW,247,13.1,17.0,79,0.00,,,0.00,Rainwise IP-100,2013-08-22 23:20:00,
2013-08-22 16:25:00,62.5,56.0,29.70,West,270,8.6,17.0,79,0.00,,,0.00,Rainwise IP-100,2013-08-22 23:25:00,
2013-08-22 16:30:00,62.8,55.0,29.70,SW,225,10.7,15.0,78,0.00,,,0.00,Rainwise IP-100,2013-08-22 23:30:00,
2013-08-22 16:35:00,62.9,56.0,29.70,SSW,202,13.5,18.0,78,0.00,,,0.00,Rainwise IP-100,2013-08-22 23:35:00,
2013-08-22 16:40:00,62.4,55.0,29.70,SSW,202,9.3,18.0,78,0.00,,,0.00,Rainwise IP-100,2013-08-22 23:40:00,
2013-08-22 16:45:00,62.4,55.0,29.70,SW,225,13.1,17.0,78,0.00,,,0.00,Rainwise IP-100,2013-08-22 23:45:00,
2013-08-22 16:50:00,62.7,56.0,29.69,SW,225,6.5,17.0,79,0.00,,,0.00,Rainwise IP-100,2013-08-22 23:50:00,
2013-08-22 16:55:00,62.7,55.0,29.70,SSW,202,22.2,22.2,78,0.00,,,0.00,Rainwise IP-100,2013-08-22 23:55:00,
2013-08-22 17:00:00,62.8,55.0,29.69,WSW,247,13.1,22.0,78,0.00,,,0.00,Rainwise IP-100,2013-08-23 00:00:00,
2013-08-22 17:05:00,62.8,55.0,29.69,SSW,202,7.9,17.0,78,0.00,,,0.00,Rainwise IP-100,2013-08-23 00:05:00,
2013-08-22 17:10:00,62.9,56.0,29.69,West,270,12.4,17.0,78,0.00,,,0.00,Rainwise IP-100,2013-08-23 00:10:00,
2013-08-22 17:15:00,62.9,56.0,29.69,SW,225,14.2,18.0,78,0.00,,,0.00,Rainwise IP-100,2013-08-23 00:15:00,
2013-08-22 17:20:00,62.6,56.0,29.70,WSW,247,11.9,19.0,79,0.00,,,0.00,Rainwise IP-100,2013-08-23 00:20:00,
2013-08-22 17:25:00,62.3,55.0,29.70,SSW,202,8.6,18.0,79,0.00,,,0.00,Rainwise IP-100,2013-08-23 00:25:00,
2013-08-22 17:30:00,62.4,56.0,29.69,SSW,202,8.6,17.0,79,0.00,,,0.00,Rainwise IP-100,2013-08-23 00:30:00,
2013-08-22 17:35:00,62.4,56.0,29.69,SSW,202,18.4,18.4,79,0.00,,,0.00,Rainwise IP-100,2013-08-23 00:35:00,
2013-08-22 17:40:00,62.3,55.0,29.70,WSW,247,11.4,18.0,79,0.00,,,0.00,Rainwise IP-100,2013-08-23 00:40:00,
2013-08-22 17:45:00,62.3,56.0,29.69,SSW,202,6.8,16.0,80,0.00,,,0.00,Rainwise IP-100,2013-08-23 00:45:00,
2013-08-22 17:50:00,62.3,56.0,29.70,SW,225,12.1,15.0,80,0.00,,,0.00,Rainwise IP-100,2013-08-23 00:50:00,
2013-08-22 17:55:00,62.1,56.0,29.69,WSW,247,8.2,17.0,80,0.00,,,0.00,Rainwise IP-100,2013-08-23 00:55:00,
2013-08-22 18:00:00,61.8,56.0,29.69,WSW,247,5.8,15.0,81,0.00,,,0.00,Rainwise IP-100,2013-08-23 01:00:00,
2013-08-22 18:05:00,61.5,56.0,29.69,SW,225,4.9,14.0,81,0.00,,,0.00,Rainwise IP-100,2013-08-23 01:05:00,
2013-08-22 18:10:00,61.3,55.0,29.69,SW,225,8.4,16.0,82,0.00,,,0.00,Rainwise IP-100,2013-08-23 01:10:00,
2013-08-22 18:15:00,61.1,56.0,29.68,SSW,202,6.5,18.0,83,0.00,,,0.00,Rainwise IP-100,2013-08-23 01:15:00,
2013-08-22 18:20:00,61.1,56.0,29.68,West,270,7.0,15.0,83,0.00,,,0.00,Rainwise IP-100,2013-08-23 01:20:00,
2013-08-22 18:25:00,60.9,56.0,29.68,SW,225,7.7,17.0,83,0.00,,,0.00,Rainwise IP-100,2013-08-23 01:25:00,
2013-08-22 18:30:00,60.7,55.0,29.68,WSW,247,4.4,17.0,83,0.00,,,0.00,Rainwise IP-100,2013-08-23 01:30:00,
2013-08-22 18:35:00,60.8,55.0,29.68,WSW,247,4.2,13.0,83,0.00,,,0.00,Rainwise IP-100,2013-08-23 01:35:00,
2013-08-22 18:40:00,60.8,56.0,29.68,West,270,11.4,14.0,84,0.00,,,0.00,Rainwise IP-100,2013-08-23 01:40:00,
2013-08-22 18:45:00,60.6,56.0,29.69,WSW,247,10.5,14.0,84,0.00,,,0.00,Rainwise IP-100,2013-08-23 01:45:00,
2013-08-22 18:50:00,60.3,55.0,29.68,SSW,202,10.3,15.0,84,0.00,,,0.00,Rainwise IP-100,2013-08-23 01:50:00,
2013-08-22 18:55:00,60.2,55.0,29.68,SW,225,8.4,16.0,85,0.00,,,0.00,Rainwise IP-100,2013-08-23 01:55:00,
2013-08-22 19:00:00,60.1,55.0,29.67,WSW,247,4.9,13.0,85,0.00,,,0.00,Rainwise IP-100,2013-08-23 02:00:00,
2013-08-22 19:05:00,60.0,55.0,29.68,WSW,247,9.6,16.0,85,0.00,,,0.00,Rainwise IP-100,2013-08-23 02:05:00,
2013-08-22 19:10:00,59.8,55.0,29.68,SSW,202,7.2,14.0,86,0.00,,,0.00,Rainwise IP-100,2013-08-23 02:10:00,
2013-08-22 19:15:00,59.7,55.0,29.68,SSW,202,8.9,14.0,86,0.00,,,0.00,Rainwise IP-100,2013-08-23 02:15:00,
2013-08-22 19:20:00,59.8,55.0,29.67,WSW,247,6.3,16.0,86,0.00,,,0.00,Rainwise IP-100,2013-08-23 02:20:00,
2013-08-22 19:25:00,59.7,55.0,29.68,WSW,247,5.8,14.0,87,0.00,,,0.00,Rainwise IP-100,2013-08-23 02:25:00,
2013-08-22 19:30:00,59.7,55.0,29.68,SW,225,7.2,14.0,87,0.00,,,0.00,Rainwise IP-100,2013-08-23 02:30:00,
2013-08-22 19:35:00,59.6,55.0,29.68,WSW,247,7.5,15.0,87,0.00,,,0.00,Rainwise IP-100,2013-08-23 02:35:00,
2013-08-22 19:40:00,59.4,56.0,29.68,West,270,4.2,13.0,88,0.00,,,0.00,Rainwise IP-100,2013-08-23 02:40:00,
2013-08-22 19:45:00,59.1,55.0,29.68,SW,225,7.5,13.0,88,0.00,,,0.00,Rainwise IP-100,2013-08-23 02:45:00,
2013-08-22 19:50:00,59.2,55.0,29.68,WSW,247,7.0,15.0,88,0.00,,,0.00,Rainwise IP-100,2013-08-23 02:50:00,
2013-08-22 19:55:00,59.2,55.0,29.68,SW,225,5.4,11.0,88,0.00,,,0.00,Rainwise IP-100,2013-08-23 02:55:00,
2013-08-22 20:00:00,59.2,56.0,29.68,West,270,8.2,12.0,89,0.00,,,0.00,Rainwise IP-100,2013-08-23 03:00:00,
2013-08-22 20:05:00,59.0,56.0,29.68,West,270,8.9,12.0,89,0.00,,,0.00,Rainwise IP-100,2013-08-23 03:05:00,
2013-08-22 20:10:00,58.9,56.0,29.68,WSW,247,11.2,14.0,89,0.00,,,0.00,Rainwise IP-100,2013-08-23 03:10:00,
2013-08-22 20:15:00,58.9,56.0,29.69,SSW,202,12.1,12.1,89,0.00,,,0.00,Rainwise IP-100,2013-08-23 03:15:00,
2013-08-22 20:20:00,58.9,56.0,29.68,SW,225,11.7,14.0,90,0.00,,,0.00,Rainwise IP-100,2013-08-23 03:20:00,
2013-08-22 20:25:00,58.9,56.0,29.69,SW,225,6.8,14.0,89,0.00,,,0.00,Rainwise IP-100,2013-08-23 03:25:00,
2013-08-22 20:30:00,58.9,56.0,29.69,SW,225,6.5,16.0,89,0.00,,,0.00,Rainwise IP-100,2013-08-23 03:30:00,
2013-08-22 20:35:00,58.9,56.0,29.69,SW,225,6.1,15.0,89,0.00,,,0.00,Rainwise IP-100,2013-08-23 03:35:00,
2013-08-22 20:40:00,58.9,56.0,29.69,West,270,5.1,14.0,89,0.00,,,0.00,Rainwise IP-100,2013-08-23 03:40:00,
2013-08-22 20:45:00,58.8,56.0,29.69,SSW,202,4.9,14.0,89,0.00,,,0.00,Rainwise IP-100,2013-08-23 03:45:00,
2013-08-22 20:50:00,58.7,56.0,29.70,WSW,247,5.4,14.0,89,0.00,,,0.00,Rainwise IP-100,2013-08-23 03:50:00,
2013-08-22 20:55:00,58.7,56.0,29.69,SSW,202,5.1,14.0,89,0.00,,,0.00,Rainwise IP-100,2013-08-23 03:55:00,
2013-08-22 21:00:00,58.7,56.0,29.69,WSW,247,12.6,13.0,89,0.00,,,0.00,Rainwise IP-100,2013-08-23 04:00:00,
2013-08-22 21:01:00,58.7,56.0,29.69,SW,225,14.2,14.2,89,0.00,,,0.00,Rainwise IP-100,2013-08-23 04:01:00,
2013-08-22 21:06:00,58.8,56.0,29.69,SSW,202,10.7,17.0,89,0.00,,,0.00,Rainwise IP-100,2013-08-23 04:06:00,
2013-08-22 21:11:00,58.8,56.0,29.70,WSW,247,6.3,16.0,89,0.00,,,0.00,Rainwise IP-100,2013-08-23 04:11:00,
2013-08-22 21:16:00,58.8,56.0,29.70,SSW,202,5.1,17.0,89,0.00,,,0.00,Rainwise IP-100,2013-08-23 04:16:00,
2013-08-22 21:21:00,58.7,56.0,29.70,SSW,202,9.8,13.0,89,0.00,,,0.00,Rainwise IP-100,2013-08-23 04:21:00,
2013-08-22 21:26:00,58.6,56.0,29.70,WSW,247,5.1,13.0,89,0.00,,,0.00,Rainwise IP-100,2013-08-23 04:26:00,
2013-08-22 21:31:00,58.6,56.0,29.70,SW,225,10.5,12.0,89,0.00,,,0.00,Rainwise IP-100,2013-08-23 04:31:00,
2013-08-22 21:36:00,58.6,56.0,29.70,WSW,247,4.0,14.0,89,0.00,,,0.00,Rainwise IP-100,2013-08-23 04:36:00,
2013-08-22 21:41:00,58.6,56.0,29.70,SSW,202,4.4,13.0,89,0.00,,,0.00,Rainwise IP-100,2013-08-23 04:41:00,
2013-08-22 21:46:00,58.7,56.0,29.70,SW,225,6.1,13.0,89,0.00,,,0.00,Rainwise IP-100,2013-08-23 04:46:00,
2013-08-22 21:51:00,58.6,56.0,29.70,WSW,247,4.9,10.0,89,0.00,,,0.00,Rainwise IP-100,2013-08-23 04:51:00,
2013-08-22 21:56:00,58.6,56.0,29.70,WSW,247,7.0,10.0,89,0.00,,,0.00,Rainwise IP-100,2013-08-23 04:56:00,
2013-08-22 22:01:00,58.6,56.0,29.70,SW,225,4.2,14.0,89,0.00,,,0.00,Rainwise IP-100,2013-08-23 05:01:00,
2013-08-22 22:06:00,58.6,56.0,29.70,WSW,247,2.6,15.0,89,0.00,,,0.00,Rainwise IP-100,2013-08-23 05:06:00,
2013-08-22 22:11:00,58.7,56.0,29.70,SW,225,7.2,9.0,90,0.00,,,0.00,Rainwise IP-100,2013-08-23 05:11:00,
2013-08-22 22:16:00,58.8,56.0,29.70,WSW,247,2.8,11.0,90,0.00,,,0.00,Rainwise IP-100,2013-08-23 05:16:00,
2013-08-22 22:21:00,58.7,56.0,29.70,SW,225,4.2,12.0,90,0.00,,,0.00,Rainwise IP-100,2013-08-23 05:21:00,
2013-08-22 22:26:00,58.6,56.0,29.70,SSW,202,4.2,9.0,90,0.00,,,0.00,Rainwise IP-100,2013-08-23 05:26:00,
2013-08-22 22:31:00,58.7,56.0,29.70,SSW,202,4.7,10.0,90,0.00,,,0.00,Rainwise IP-100,2013-08-23 05:31:00,
2013-08-22 22:36:00,58.9,56.0,29.70,SW,225,12.4,12.4,90,0.00,,,0.00,Rainwise IP-100,2013-08-23 05:36:00,
2013-08-22 22:41:00,58.9,56.0,29.69,WSW,247,5.4,13.0,90,0.00,,,0.00,Rainwise IP-100,2013-08-23 05:41:00,
2013-08-22 22:46:00,58.7,56.0,29.70,SSW,202,7.0,12.0,90,0.00,,,0.00,Rainwise IP-100,2013-08-23 05:46:00,
2013-08-22 22:51:00,58.6,56.0,29.70,SSW,202,8.9,13.0,90,0.00,,,0.00,Rainwise IP-100,2013-08-23 05:51:00,
2013-08-22 22:56:00,58.6,56.0,29.69,SW,225,6.5,14.0,90,0.00,,,0.00,Rainwise IP-100,2013-08-23 05:56:00,
2013-08-22 23:01:00,58.6,56.0,29.70,WSW,247,9.6,10.0,91,0.00,,,0.00,Rainwise IP-100,2013-08-23 06:01:00,
2013-08-22 23:06:00,58.5,56.0,29.70,SSW,202,4.9,10.0,91,0.00,,,0.00,Rainwise IP-100,2013-08-23 06:06:00,
2013-08-22 23:11:00,58.4,56.0,29.70,SW,225,9.3,12.0,91,0.00,,,0.00,Rainwise IP-100,2013-08-23 06:11:00,
2013-08-22 23:16:00,58.4,56.0,29.70,WSW,247,8.6,13.0,91,0.00,,,0.00,Rainwise IP-100,2013-08-23 06:16:00,
2013-08-22 23:21:00,58.5,56.0,29.70,SW,225,8.9,13.0,91,0.00,,,0.00,Rainwise IP-100,2013-08-23 06:21:00,
2013-08-22 23:26:00,58.5,56.0,29.70,WSW,247,4.2,13.0,91,0.00,,,0.00,Rainwise IP-100,2013-08-23 06:26:00,
2013-08-22 23:31:00,58.4,56.0,29.70,WSW,247,6.8,14.0,92,0.00,,,0.00,Rainwise IP-100,2013-08-23 06:31:00,
2013-08-22 23:36:00,58.3,56.0,29.69,WSW,247,8.9,12.0,92,0.00,,,0.00,Rainwise IP-100,2013-08-23 06:36:00,
2013-08-22 23:41:00,58.4,56.0,29.70,SW,225,7.5,12.0,92,0.00,,,0.00,Rainwise IP-100,2013-08-23 06:41:00,
2013-08-22 23:46:00,58.4,56.0,29.70,SW,225,6.8,11.0,92,0.00,,,0.00,Rainwise IP-100,2013-08-23 06:46:00,
2013-08-22 23:51:00,58.3,56.0,29.70,SW,225,10.3,11.0,92,0.00,,,0.00,Rainwise IP-100,2013-08-23 06:51:00,
2013-08-22 23:56:00,58.2,56.0,29.70,SW,225,3.7,12.0,92,0.00,,,0.00,Rainwise IP-100,2013-08-23 06:56:00,